Hill City, KS

9:19 PM CST on December 15, 2017 (GMT -0600)
Hill City Municipal

Weather History for KHLC - April, 2012

Change the Weather History Date:

Tuesday, April 3, 2012

  Actual Average Record
Temperature  
Mean Temperature 48 °F 47 °F  
Max Temperature 51 °F 61 °F 90 °F (1928)
Min Temperature 45 °F 33 °F 10 °F (1936)
Degree Days  
Heating Degree Days 18    
Moisture  
Dew Point 43 °F    
Average Humidity 86    
Maximum Humidity 93    
Minimum Humidity 76    
Precipitation  
Precipitation 0.56 in 0.06 in 0.56 in (2012)
Month to date precipitation 0.65 0.15  
Year to date precipitation 2.37 2.75  
Sea Level Pressure  
Sea Level Pressure 29.99 in    
Wind  
Wind Speed 14 mph (NNE)    
Max Wind Speed 23 mph    
Max Gust Speed 30 mph    
Visibility 9 miles    
Events Rain , Thunderstorm    
T = Trace of Precipitation, MM = Missing Value Source: NWS Daily Summary

Daily Weather History Graph

Daily Weather History Graph

Search for Another Location

Airport or City:

Trip Planner

Search our weather history database for the weather conditions in past years. The results will help you decide how hot, cold, wet, or windy it might be!

Date:

Astronomy

Apr. 03, 2012 Rise Set
Actual Time 7:19 AM CDT 8:05 PM CDT
Civil Twilight 6:52 AM CDT 8:32 PM CDT
Nautical Twilight 6:20 AM CDT 9:05 PM CDT
Astronomical Twilight 5:47 AM CDT 9:38 PM CDT
Moon 4:52 PM CDT (4/3) 5:07 AM CDT (4/3)
Length of Visible Light 13h 40m
Length of Day
12h 46m
Waxing Gibbous, 87% of the Moon is Illuminated
Apr 3
Waxing Gibbous
Apr 6
Full
Apr 13
Last Quarter
Apr 21
New
Apr 29
First Quarter

Hourly Weather History & Observations

Time (CDT) Temp. Windchill Dew Point Humidity Pressure Visibility Wind Dir Wind Speed Gust Speed Precip Events Conditions
12:49 AM 46.4 °F 42.4 °F 41.0 °F 81% 29.92 in 10.0 mi NNE 8.1 mph 18.4 mph N/A   Overcast
12:53 AM 46.0 °F 39.9 °F 41.0 °F 83% 29.90 in 10.0 mi North 13.8 mph 18.4 mph N/A   Overcast
1:30 AM 46.4 °F 40.4 °F 41.0 °F 81% 29.93 in 10.0 mi North 13.8 mph 21.9 mph 0.01 in Rain , Thunderstorm Light Rain
1:53 AM 45.0 °F 38.5 °F 42.1 °F 90% 29.95 in 2.5 mi North 13.8 mph - 0.14 in Rain , Thunderstorm Heavy Thunderstorms and Rain
2:07 AM 44.6 °F 36.9 °F 42.8 °F 93% 29.97 in 5.0 mi NNE 18.4 mph 25.3 mph N/A Rain , Thunderstorm Light Thunderstorms and Rain
2:20 AM 44.6 °F 37.4 °F 42.8 °F 93% 29.97 in 2.5 mi North 16.1 mph - 0.19 in Rain , Thunderstorm Heavy Thunderstorms and Rain
2:29 AM 44.6 °F 38.1 °F 42.8 °F 93% 29.97 in 5.0 mi North 13.8 mph - 0.21 in Rain , Thunderstorm Thunderstorms and Rain
2:41 AM 44.6 °F 37.4 °F 42.8 °F 93% 29.99 in 8.0 mi NNE 16.1 mph - 0.23 in Rain Light Rain
2:49 AM 44.6 °F 36.9 °F 42.8 °F 93% 29.98 in 7.0 mi NNE 18.4 mph 24.2 mph 0.25 in Rain Rain
2:53 AM 45.0 °F 38.9 °F 42.1 °F 90% 29.97 in 7.0 mi NNE 12.7 mph 24.2 mph 0.25 in Rain Rain
3:06 AM 44.6 °F 37.8 °F 42.8 °F 93% 29.99 in 4.0 mi North 15.0 mph 21.9 mph 0.08 in Rain Rain
3:22 AM 44.6 °F 39.2 °F 42.8 °F 93% 30.05 in 7.0 mi SW 10.4 mph 16.1 mph 0.12 in Rain Light Rain
3:38 AM 44.6 °F 43.1 °F 42.8 °F 93% 30.05 in 10.0 mi Variable 3.5 mph - 0.12 in Rain Light Rain
3:53 AM 46.0 °F 40.2 °F 42.1 °F 86% 30.00 in 10.0 mi North 12.7 mph 17.3 mph 0.12 in Rain Light Rain
4:53 AM 45.0 °F 38.5 °F 43.0 °F 93% 29.91 in 10.0 mi North 13.8 mph 27.6 mph 0.00 in   Overcast
5:00 AM 46.4 °F 40.7 °F 42.8 °F 87% 29.96 in 10.0 mi NNW 12.7 mph 19.6 mph N/A   Overcast
5:42 AM 46.4 °F 40.4 °F 42.8 °F 87% 29.98 in 10.0 mi North 13.8 mph - N/A   Overcast
5:53 AM 46.0 °F 39.3 °F 43.0 °F 89% 29.95 in 10.0 mi North 16.1 mph - N/A   Overcast
6:53 AM 46.0 °F 38.8 °F 43.0 °F 89% 29.97 in 10.0 mi NNE 18.4 mph 24.2 mph N/A   Overcast
7:53 AM 46.0 °F 38.0 °F 42.1 °F 86% 29.98 in 10.0 mi NNE 21.9 mph 28.8 mph N/A   Overcast
8:36 AM 44.6 °F 35.9 °F 42.8 °F 93% 30.00 in 10.0 mi NNE 23.0 mph 29.9 mph N/A   Overcast
8:53 AM 45.0 °F 37.1 °F 42.1 °F 90% 30.01 in 10.0 mi NNE 19.6 mph 29.9 mph N/A   Overcast
9:40 AM 44.6 °F 36.4 °F 41.0 °F 87% 30.03 in 10.0 mi NNE 20.7 mph 25.3 mph N/A   Overcast
9:53 AM 45.0 °F 37.4 °F 41.0 °F 86% 30.04 in 10.0 mi NNE 18.4 mph 28.8 mph N/A   Overcast
10:53 AM 46.0 °F 39.3 °F 41.0 °F 83% 30.07 in 10.0 mi NE 16.1 mph 25.3 mph N/A   Overcast
11:53 AM 46.0 °F 38.8 °F 42.1 °F 86% 30.05 in 10.0 mi NNE 18.4 mph 23.0 mph N/A   Overcast
12:53 PM 46.9 °F - 43.0 °F 86% 30.04 in 9.0 mi NNE 13.8 mph - N/A   Overcast
1:53 PM 46.9 °F - 42.1 °F 83% 30.06 in 10.0 mi NNE 16.1 mph 23.0 mph N/A   Overcast
2:53 PM 48.0 °F - 43.0 °F 83% 30.03 in 10.0 mi NNE 16.1 mph - N/A   Overcast
3:53 PM 48.9 °F - 44.1 °F 83% 30.02 in 9.0 mi NNE 15.0 mph - N/A   Overcast
4:53 PM 48.9 °F - 45.0 °F 86% 30.01 in 10.0 mi NNE 11.5 mph - N/A   Overcast
5:36 PM 50.0 °F - 44.6 °F 82% 29.99 in 10.0 mi North 10.4 mph - N/A   Overcast
5:53 PM 51.1 °F - 44.1 °F 77% 29.98 in 10.0 mi North 16.1 mph - N/A   Overcast
6:53 PM 50.0 °F - 43.0 °F 77% 29.98 in 10.0 mi NNE 15.0 mph 20.7 mph N/A   Overcast
7:08 PM 50.0 °F - 42.8 °F 76% 29.96 in 10.0 mi NNE 15.0 mph - N/A   Overcast
7:53 PM 50.0 °F - 43.0 °F 77% 29.96 in 10.0 mi NNE 12.7 mph 19.6 mph N/A   Overcast
8:53 PM 50.0 °F - 43.0 °F 77% 29.95 in 10.0 mi NNE 9.2 mph - N/A   Overcast
9:53 PM 50.0 °F - 44.1 °F 80% 29.96 in 10.0 mi NNE 8.1 mph - 0.00 in Rain Light Rain
10:53 PM 48.9 °F - 45.0 °F 86% 29.94 in 10.0 mi North 9.2 mph - 0.02 in   Overcast